Regional Weather Roundup
Issued by NWS Newport/Morehead, NC

Current Version | Previous Version | Graphics & Text | Print | Product List | Glossary On
Versions: 1 2 3 4 5 6 7 8 9 10 11 12 13 14 15 16 17 18 19 20 21 22 23 24 25 26 27 28 29 30 31 32 33 34 35 36 37 38 39 40 41 42 43 44 45 46 47 48 49 50
225 ASUS42 KMHX 231925 RWRMHX WEATHER ROUNDUP FOR EASTERN NORTH CAROLINA NATIONAL WEATHER SERVICE NEWPORT/MOREHEAD CITY NC 300 PM EDT FRI JUN 23 2017 NOTE: "FAIR" INDICATES FEW OR NO CLOUDS BELOW 12,000 FEET WITH NO SIGNIFICANT WEATHER AND/OR OBSTRUCTIONS TO VISIBILITY NCZ015>017-031-032-045>047-102-103-232000- NORTH COAST CITY SKY/WX TMP DP RH WIND PRES REMARKS EDENTON PTSUNNY 90 77 65 SW14 29.91F HX 102 ELIZABETH CITY MOSUNNY 87 78 74 S16G26 29.91F HX 100 KITTY HAWK MOCLDY 86 73 64 SW3G17 29.92F MANTEO CLOUDY 85 75 71 SW17G23 29.94S $$ NCZ045>047-081-094-103-104-232000- CENTRAL COAST CITY SKY/WX TMP DP RH WIND PRES REMARKS FRISCO CLOUDY 83 76 79 SW13G22 29.98F $$ NCZ095-097-098-100-101-232000- SOUTHERN COAST CITY SKY/WX TMP DP RH WIND PRES REMARKS BEAUFORT MOSUNNY 85 79 82 SW21G28 29.98F CEDAR ISLAND NOT AVBL JACKSONVILLE PTSUNNY 89 77 67 SW9 29.96F HX 101 PINEY ISLAND PTCLDY N/A N/A N/A SW21G29 29.96F WILMINGTON MOSUNNY 88 76 67 SW15G23 29.98F $$ NCZ011>013-027>030-043-044-078>080-089-090>093-098-232000- COASTAL PLAIN CITY SKY/WX TMP DP RH WIND PRES REMARKS AHOSKIE N/A 87 76 69 S7G16 29.89F CLINTON SUNNY 89 75 63 SW12G18 29.95F ELIZABETHTOWN NOT AVBL GOLDSBORO MOSUNNY 90 77 65 SW13 29.93F HX 103 GREENVILLE MOSUNNY 90 73 58 SW15G23 29.94F HAVELOCK MOSUNNY 88 76 67 SW18 29.97F KENANSVILLE CLOUDY 90 75 62 SW7 29.95F HX 100 KINSTON PTSUNNY 91 73 55 SW14G21 29.94F HX 100 NEW BERN MOSUNNY 89 76 65 SW12 29.96F HX 100 RICHLANDS CLOUDY 89 76 65 S15G21 29.96F HX 100 ROCKY MOUNT SUNNY 90 74 59 SW14G24 29.91F WASHINGTON SUNNY N/A N/A N/A SW13G18 29.93F WHITEVILLE MOSUNNY 90 75 60 SW9 29.97F HX 100 $$ AMZ130-135-150-152-154-156-158-170-250-252-270-ANZ085-086-088-633-658-670-232000- MARINE OBSERVATIONS STATION/POSITION TIME TEMP WIND PRES WAVE SWELL AIR SEA DIR/SP/G HT/PER HT/PER (UTC) (F) (DEG/KT/KT) (MB) (FT/S) (FT/S) CHESAPEAKE LIGHT NOT AVBL 64 E VA BEACH 1850 75 73 200/ 16/ 17 1013.3 3/ 8 2/ 8 DUCK 1900 83 65 210/ 17/ 23 1012.7 2 E DUCK NOT AVBL OREGON INLET 1900 81 81 190/ 18/ 21 1013.9 13E OREGON INLT 1848 72 N/A 3/ 8 2/ 8 HATTERAS CG 1900 82 79 220/ 13/ 19 1014.8 DIAMOND BUOY 1850 81 81 220/ 19/ 21 1015.2 3/ 8 2/ 8 CAPE LOOKOUT 1900 83 220/ 15/ 18 1015.1 BEAUFORT LAB 1900 83 79 210/ 13/ 18 1014.6 30 SE NEW RVR IN 1908 80 81 230/ 17/ 21 1015.9 30 SE NEW RVR IN 1913 81 N/A 5/ 5 27 SE WRIGHTSVLE 1908 80 80 210/ 16/ 21 1016.1 5 SE WRIGHTSVLE 1908 81 79 210/ 12/ 21 1015.7 225 S CAPE HAT 1850 81 82 210/ 12/ 14 1019.1 4/ 9 3/ 9 41 SE CHARLESTON 1910 81 81 210/ 16/ 17 1016.6 $$

USA.gov is the U.S. government's official web portal to all federal, state and local government web resources and services.